This is the latest recevied weather packets stored in our database for station/object N5SOR-1. If no packets are shown the sender has not sent any weather packets the latest 10 day(s).
| Time | Temp. | Humidity | Pressure | Rain* | Wind** | Luminosity | Snow |
|---|---|---|---|---|---|---|---|
| 1777693457 | 10.56° C | 80% | 1021.6 hPa | 0 mm | - | 0 W/m² | - |
| 1777692797 | 10.56° C | 80% | 1021.4 hPa | 0 mm | - | 0 W/m² | - |
| 1777692136 | 10.56° C | 81% | 1021.3 hPa | 0 mm | - | 0 W/m² | - |
| 1777691476 | 10.56° C | 80% | 1021 hPa | 0 mm | - | 0 W/m² | - |
| 1777690815 | 11.11° C | 81% | 1020.4 hPa | 0 mm | - | 0 W/m² | - |
| 1777690154 | 11.11° C | 81% | 1020.3 hPa | 0 mm | - | 0 W/m² | - |
| 1777689493 | 11.11° C | 81% | 1019.9 hPa | 0 mm | - | 0 W/m² | - |
| 1777688833 | 11.11° C | 82% | 1019.8 hPa | 0 mm | - | 0 W/m² | - |
| 1777688172 | 11.11° C | 83% | 1019.3 hPa | 0 mm | - | 0 W/m² | - |
| 1777687512 | 11.67° C | 82% | 1019.1 hPa | 0 mm | - | 0 W/m² | - |
| 1777686851 | 11.67° C | 81% | 1018.9 hPa | 0 mm | - | 0 W/m² | - |
| 1777686191 | 11.67° C | 82% | 1018.7 hPa | 0 mm | - | 0 W/m² | - |
| 1777685530 | 12.22° C | 82% | 1018.3 hPa | 0 mm | - | 0 W/m² | - |
| 1777684869 | 12.22° C | 82% | 1018.1 hPa | 0 mm | - | 0 W/m² | - |
| 1777684209 | 12.22° C | 82% | 1018 hPa | 0 mm | - | 0 W/m² | - |
| 1777683548 | 12.78° C | 81% | 1017.6 hPa | 0 mm | - | 0 W/m² | - |
| 1777682888 | 12.78° C | 81% | 1017.3 hPa | 0 mm | - | 11 W/m² | - |
| 1777682227 | 12.78° C | 81% | 1017.1 hPa | 0 mm | - | 18 W/m² | - |
| 1777681566 | 12.78° C | 81% | 1016.8 hPa | 0 mm | - | 39 W/m² | - |
| 1777680906 | 12.78° C | 81% | 1016.6 hPa | 0 mm | - | 40 W/m² | - |
| 1777680245 | 13.33° C | 81% | 1016.4 hPa | 0 mm | - | 39 W/m² | - |
| 1777679585 | 13.33° C | 81% | 1016.3 hPa | 0 mm | - | 67 W/m² | - |
| 1777678924 | 13.33° C | 80% | 1015.8 hPa | 0 mm | - | 86 W/m² | - |
| 1777678263 | 13.89° C | 81% | 1015.6 hPa | 0 mm | - | 172 W/m² | - |
| 1777677602 | 14.44° C | 80% | 1015.4 hPa | 0 mm | - | 207 W/m² | - |
* Rain latest hour (hover to see other rain measurements)
** Current wind speed in m/s (hover to see current wind gust speed)